Flag for Austria Weather past 2 weeks in Mattersburg, Burgenland, Austria

Now
45 °F

Cool.


Feels Like: 40 °F
Forecast: 31 / 46 °F
Wind: 10 mph from West

Location: Eisenstadt

Current Time: Mar 3, 2015 at 12:17:44 PM

Latest Report: Mar 3, 2015 at 11:00 AM


Visibility: N/A

Pressure: 30.20 "Hg

Humidity: 41%

Dew point: 22 °F

Location of MattersburgLocation

Historic Weather in Mattersburg — Graph

°F

Mattersburg temperature yesterday

Maximum temperature yesterday: 56 °F (at 1:00 PM)
Minimum temperature yesterday: 41 °F (at 7:00 AM)
Average temperature yesterday: 45 °F

Past Weeks' High & Low Weather Summary

 TemperatureHumidityPressure
High57 °F (Feb 21, 3:00 PM)100% (Feb 20, 10:00 AM)30.78 "Hg (Feb 20, 10:00 AM)
Low27 °F (Feb 20, 5:00 AM)30% (Feb 21, 12:00 PM)29.57 "Hg (Feb 21, 3:00 PM)
Average40 °F75%30.05 "Hg
* Reported Feb 16 11:00 AM — Mar 3 11:00 AM, Mattersburg, Weather by CustomWeather, © 2015

Note: Actual official high and low records may vary slightly from our data, if they occured in-between our weather recording intervals... More about our weather records

Advertising

Mattersburg weather history for previous 24 hours

 ConditionsComfort  
Time TempWeatherWind HumidityBarometerVisibility
11:00 AM
Tue, Mar 3
45 °FCool.10 mph41%30.20 "HgN/A
10:00 AM44 °FPassing clouds.8 mph45%30.19 "Hg9 mi
9:00 AM42 °FQuite cool.12 mph47%30.18 "HgN/A
8:00 AM41 °FQuite cool.10 mph57%30.17 "HgN/A
7:00 AM39 °FPassing clouds.7 mph66%30.15 "Hg9 mi
6:00 AM40 °FPassing clouds.8 mph57%30.12 "Hg9 mi
5:00 AM40 °FQuite cool.8 mph56%30.11 "HgN/A
4:00 AM40 °FChilly.8 mph56%30.10 "HgN/A
3:00 AM38 °FChilly.8 mph79%30.06 "HgN/A
2:00 AM43 °FQuite cool.9 mph55%29.98 "HgN/A
1:00 AM44 °FPassing clouds.7 mph60%29.96 "Hg9 mi
12:00 AM40 °FQuite cool.3 mph64%29.91 "HgN/A
11:00 PM
Mon, Mar 2
45 °FCool.5 mph52%29.88 "HgN/A
9:00 PM45 °FQuite cool.8 mph57%29.85 "HgN/A
8:00 PM44 °FQuite cool.3 mph62%29.84 "HgN/A
7:00 PM46 °FOvercast.5 mph59%29.82 "Hg9 mi
6:00 PM46 °FCool.1 mph67%29.78 "HgN/A
5:00 PM47 °FCool.6 mph69%29.74 "HgN/A
4:00 PM45 °FOvercast.3 mph77%29.74 "Hg9 mi
3:00 PM44 °FQuite cool.3 mph80%29.74 "HgN/A
2:00 PM45 °FQuite cool.8 mph83%29.73 "HgN/A
1:00 PM56 °FOvercast.3 mph58%29.65 "Hg5 mi
12:00 PM49 °FCool.1 mph73%29.66 "HgN/A
Weather by CustomWeather, © 2015

See weather overviewHow to use our weather pages